This is the latest recevied weather packets stored in our database for station/object KF0FSA. If no packets are shown the sender has not sent any weather packets the latest 10 day(s).
| Time | Temp. | Humidity | Pressure | Rain* | Wind** | Luminosity | Snow |
|---|---|---|---|---|---|---|---|
| 1777900462 | 13.33° C | 61% | 948.8 hPa | 0 mm | - | 252 W/m² | - |
| 1777900162 | 13.33° C | 61% | 948.7 hPa | 0 mm | - | 146 W/m² | - |
| 1777899862 | 13.33° C | 61% | 948.5 hPa | 0 mm | - | 231 W/m² | - |
| 1777899562 | 13.33° C | 61% | 948.4 hPa | 0 mm | - | 213 W/m² | - |
| 1777899262 | 12.78° C | 61% | 948.4 hPa | 0 mm | - | 190 W/m² | - |
| 1777899078 | 12.78° C | 61% | 948.3 hPa | 0 mm | - | 181 W/m² | - |
| 1777898662 | 12.78° C | 62% | 948.2 hPa | 0 mm | - | 166 W/m² | - |
| 1777898354 | 12.78° C | 62% | 948.1 hPa | 0 mm | - | 146 W/m² | - |
| 1777898053 | 12.78° C | 62% | 948.2 hPa | 0 mm | - | 136 W/m² | - |
| 1777897753 | 12.22° C | 62% | 948.1 hPa | 0 mm | - | 122 W/m² | - |
| 1777897454 | 11.67° C | 64% | 948 hPa | 0 mm | - | 100 W/m² | - |
| 1777897154 | 11.67° C | 64% | 947.9 hPa | 0 mm | - | 90 W/m² | - |
| 1777896854 | 11.67° C | 64% | 947.9 hPa | 0 mm | - | 70 W/m² | - |
| 1777896554 | 11.11° C | 65% | 947.8 hPa | 0 mm | - | 68 W/m² | - |
| 1777896255 | 10.56° C | 66% | 947.7 hPa | 0 mm | - | 57 W/m² | - |
| 1777895950 | 10.56° C | 67% | 947.6 hPa | 0 mm | - | 45 W/m² | - |
| 1777895652 | 10.56° C | 65% | 947.7 hPa | 0 mm | - | 32 W/m² | - |
| 1777895352 | 10° C | 65% | 947.5 hPa | 0 mm | - | 26 W/m² | - |
| 1777895048 | 10° C | 66% | 947.4 hPa | 0 mm | - | 21 W/m² | - |
| 1777894749 | 10° C | 66% | 947.6 hPa | 0 mm | - | 16 W/m² | - |
| 1777894449 | 10° C | 66% | 947.5 hPa | 0 mm | - | 13 W/m² | - |
| 1777894142 | 10.56° C | 64% | 947.4 hPa | 0 mm | - | 9 W/m² | - |
| 1777893961 | 10.56° C | 63% | 947.3 hPa | 0 mm | - | 6 W/m² | - |
| 1777893543 | 11.11° C | 62% | 947.3 hPa | 0 mm | - | 3 W/m² | - |
| 1777893242 | 11.11° C | 62% | 947.3 hPa | 0 mm | - | 2 W/m² | - |
* Rain latest hour (hover to see other rain measurements)
** Current wind speed in m/s (hover to see current wind gust speed)